This is the latest recevied weather packets stored in our database for station/object N2PUI. If no packets are shown the sender has not sent any weather packets the latest 10 day(s).
| Time | Temp. | Humidity | Pressure | Rain* | Wind** | Luminosity | Snow |
|---|---|---|---|---|---|---|---|
| 1777939127 | 20° C | 41% | 1006.4 hPa | 0 mm | - | 6 W/m² | - |
| 1777938824 | 20° C | 41% | 1006.4 hPa | 0 mm | - | 9 W/m² | - |
| 1777938520 | 20° C | 41% | 1006 hPa | 0 mm | - | 13 W/m² | - |
| 1777938218 | 20° C | 40% | 1006.3 hPa | 0 mm | - | 18 W/m² | - |
| 1777937915 | 20° C | 41% | 1005.9 hPa | 0 mm | - | 23 W/m² | - |
| 1777937610 | 20.56° C | 41% | 1005.8 hPa | 0 mm | - | 28 W/m² | - |
| 1777937307 | 20.56° C | 39% | 1005.9 hPa | 0 mm | - | 33 W/m² | - |
| 1777937004 | 20.56° C | 40% | 1005.8 hPa | 0 mm | - | 38 W/m² | - |
| 1777936701 | 20.56° C | 39% | 1006 hPa | 0 mm | - | 42 W/m² | - |
| 1777936398 | 21.11° C | 38% | 1005.8 hPa | 0 mm | - | 48 W/m² | - |
| 1777936094 | 21.11° C | 38% | 1005.7 hPa | 0 mm | - | 52 W/m² | - |
| 1777935792 | 21.67° C | 37% | 1005.9 hPa | 0 mm | - | 78 W/m² | - |
| 1777935491 | 21.67° C | 36% | 1005.9 hPa | 0 mm | - | 79 W/m² | - |
| 1777935186 | 22.22° C | 34% | 1005.9 hPa | 0 mm | - | 96 W/m² | - |
| 1777934884 | 22.22° C | 32% | 1005.7 hPa | 0 mm | - | 112 W/m² | - |
| 1777934581 | 22.22° C | 32% | 1005.7 hPa | 0 mm | - | 99 W/m² | - |
| 1777934277 | 22.22° C | 33% | 1005.7 hPa | 0 mm | - | 138 W/m² | - |
| 1777933973 | 22.22° C | 31% | 1006 hPa | 0 mm | - | 157 W/m² | - |
| 1777933670 | 22.22° C | 32% | 1006 hPa | 0 mm | - | 173 W/m² | - |
| 1777933367 | 22.22° C | 32% | 1005.9 hPa | 0 mm | - | 181 W/m² | - |
| 1777933065 | 22.22° C | 33% | 1005.9 hPa | 0 mm | - | 192 W/m² | - |
| 1777932762 | 22.78° C | 34% | 1005.7 hPa | 0 mm | - | 223 W/m² | - |
| 1777932458 | 22.22° C | 32% | 1005.8 hPa | 0 mm | - | 246 W/m² | - |
| 1777932155 | 22.78° C | 32% | 1005.9 hPa | 0 mm | - | 250 W/m² | - |
| 1777931852 | 22.22° C | 33% | 1005.9 hPa | 0 mm | - | 268 W/m² | - |
* Rain latest hour (hover to see other rain measurements)
** Current wind speed in m/s (hover to see current wind gust speed)